GFSFLT2_prec_cthk_021.txt.gz
RH
17 17 16 15 10 6 6 6 9 14 21 25 26 29 32 33 33 32 31 31 30 30 29 28 29 30 30 30 31 36 37 39
17 17 14 11 6 6 8 13 18 23 25 29 33 36 36 34 34 35 34 36 34 34 33 32 32 31 31 30 30 32 36 39
19 17 15 12 12 15 19 22 24 27 32 33 35 38 38 39 40 40 40 38 37 34 35 35 35 35 35 33 32 30 29 30
19 18 17 18 19 23 25 29 31 35 37 33 34 36 38 37 41 41 42 44 43 41 40 40 40 39 39 40 38 33 32 31
30 27 26 22 25 26 31 32 33 34 35 35 36 37 37 37 39 42 45 47 46 45 44 43 42 40 41 41 41 39 35 31
40 34 33 29 30 33 37 40 43 45 47 45 42 42 39 39 43 45 46 48 49 49 47 46 44 42 40 40 40 39 38 36
43 43 42 42 44 46 48 54 55 56 52 50 46 42 41 43 48 50 51 51 50 50 50 50 49 49 48 46 44 43 43 42
48 47 50 53 54 55 55 59 58 53 53 50 49 47 50 52 57 56 54 50 50 52 52 52 53 52 50 45 47 50 48 48
53 56 60 65 68 67 62 61 55 50 51 52 54 61 64 63 64 58 54 51 54 55 55 54 52 49 44 37 37 40 37 34
70 75 82 82 81 81 77 73 61 57 56 60 67 67 69 66 60 58 56 55 58 56 53 49 42 36 32 31 29 28 28 27
80 82 87 91 89 84 70 66 63 64 68 70 72 75 72 66 65 63 60 58 52 49 43 37 37 35 33 33 33 32 31 30
88 92 92 91 86 75 71 71 70 74 78 78 77 74 73 71 69 62 55 51 49 42 38 37 36 34 32 31 31 32 32 34
88 89 78 75 75 75 74 74 79 81 80 81 78 79 75 68 61 58 55 50 46 44 41 39 35 30 27 28 28 31 32 32
67 68 74 76 73 70 76 81 79 77 77 77 75 70 65 60 58 56 51 48 48 45 40 33 28 28 29 27 28 25 27 29
62 59 60 64 67 68 68 68 69 69 67 63 58 56 56 57 57 57 59 55 45 38 31 28 26 26 28 29 31 31 29 25
54 57 59 61 60 64 65 66 64 64 63 61 60 63 62 60 56 65 62 52 42 29 25 26 28 28 28 28 30 34 34 30
54 55 55 57 61 60 61 62 64 62 61 60 57 61 61 60 56 51 49 47 34 28 30 33 31 30 31 30 28 33 36 45
57 58 59 61 63 64 63 59 58 58 58 58 58 54 49 43 39 37 36 33 30 32 33 35 35 36 42 44 45 45 45 52
66 65 63 60 57 56 57 56 58 56 53 50 46 42 38 37 39 44 44 39 38 40 44 44 50 51 53 52 53 52 53 59
67 63 56 53 54 55 55 53 49 46 42 36 32 35 39 44 49 47 42 51 52 51 51 58 59 60 51 52 52 51 53 51

GFSFLT2_prec_cthk_024.txt.gz
RH
31 21 17 17 14 8 6 7 13 20 24 27 31 31 31 31 31 32 33 34 33 32 31 30 30 29 29 28 28 29 33 36
19 17 15 12 7 6 8 14 20 24 28 31 33 32 32 33 33 35 37 38 38 38 36 35 34 33 33 33 31 30 28 28
17 15 12 9 8 10 17 21 26 31 34 35 35 33 34 35 34 37 37 39 40 43 41 39 39 37 38 38 37 34 33 32
18 17 15 14 16 19 23 26 32 36 36 37 37 38 37 37 37 39 43 44 44 45 44 43 41 42 42 41 39 37 35 33
23 21 19 20 22 25 30 34 40 40 43 47 48 48 46 44 44 44 46 47 47 47 48 47 45 45 45 45 43 41 39 37
37 35 31 27 31 36 39 45 50 50 56 54 50 49 49 49 47 47 50 52 51 48 46 47 48 48 49 49 48 46 42 42
45 45 45 44 43 50 52 55 60 61 58 51 47 48 51 50 51 54 57 55 50 48 48 50 51 50 49 48 46 44 40 39
54 54 50 51 57 59 64 65 68 70 61 55 53 53 57 59 58 61 62 59 56 53 52 52 52 48 45 39 36 33 30 29
59 61 64 67 70 77 79 82 80 69 60 58 59 62 67 66 67 67 64 63 62 58 56 52 47 41 36 32 31 30 30 28
61 69 81 84 88 89 86 85 80 74 71 67 67 73 75 75 70 70 66 70 68 56 48 44 41 37 34 33 32 31 29 28
68 79 84 94 91 83 84 87 86 79 73 76 84 85 78 78 71 73 70 62 52 48 47 45 40 36 34 31 28 26 25 25
74 84 88 94 93 86 83 80 76 77 80 86 81 75 80 73 74 67 54 50 48 47 46 43 38 33 29 23 22 21 21 22
95 90 90 87 82 79 75 75 79 84 79 70 71 68 67 63 57 52 52 51 49 47 46 43 39 34 29 23 18 20 19 17
78 75 73 69 64 67 71 73 66 63 61 60 59 58 55 51 50 50 50 50 51 48 41 35 32 28 26 23 22 20 21 22
64 61 57 60 61 56 56 56 57 58 59 59 57 54 52 54 54 54 52 47 40 33 27 22 21 22 24 27 29 30 29 27
54 55 59 59 57 57 59 60 61 61 58 58 58 59 59 57 52 44 39 36 31 27 24 24 26 29 32 38 41 45 44 38
65 66 64 62 62 62 62 63 63 61 62 62 61 56 50 49 42 38 36 34 33 30 30 30 32 36 37 39 40 46 47 50
70 71 71 70 69 64 64 62 60 59 58 54 50 46 37 33 31 30 29 31 29 35 34 34 38 38 41 46 49 49 49 47
72 72 70 69 66 62 60 58 55 51 46 42 36 32 31 30 31 35 37 37 38 46 46 49 50 50 50 50 55 54 51 45
69 70 69 66 63 57 55 49 46 44 41 38 36 37 36 35 39 42 44 46 47 46 47 50 55 52 59 53 51 49 46 49

GFSFLT2_prec_cthk_027.txt.gz
RH
48 36 24 20 19 11 7 8 17 24 27 29 29 30 29 30 30 31 32 31 32 32 31 30 30 30 31 30 29 29 27 26
30 23 21 18 12 7 9 18 25 29 31 32 32 32 33 32 33 33 36 37 36 35 35 36 34 35 36 36 34 35 33 30
20 19 16 12 9 11 19 26 32 34 36 36 36 36 36 37 41 45 45 45 42 41 40 40 40 39 41 41 40 39 37 35
19 17 15 13 15 21 26 33 38 39 40 43 44 45 48 49 48 50 51 49 49 45 43 40 40 43 43 43 43 42 41 37
21 19 18 19 24 30 34 41 44 45 51 51 50 51 49 48 48 51 52 53 53 50 45 42 42 44 45 44 42 40 39 39
35 31 27 30 33 38 43 48 54 55 58 55 54 54 54 49 47 49 51 53 56 53 51 49 46 44 44 43 41 37 33 32
44 44 40 41 46 50 54 57 62 68 67 65 61 58 55 53 55 57 59 60 59 55 55 55 51 47 44 40 37 33 29 26
57 53 56 54 58 64 71 74 74 77 82 75 68 61 61 63 66 69 69 67 65 60 55 57 52 47 41 36 33 29 27 26
58 64 67 69 76 81 84 77 80 83 89 86 79 69 70 76 76 76 73 67 62 68 59 56 48 41 37 35 31 28 26 24
67 68 77 82 91 92 86 83 86 89 86 81 76 76 80 78 74 72 75 68 73 63 53 47 44 42 38 34 31 27 23 22
71 75 82 91 92 85 89 87 89 85 78 81 85 86 84 78 73 71 69 59 53 49 47 46 41 38 35 31 28 24 23 22
70 82 91 97 89 78 80 79 77 73 78 84 80 75 70 65 63 59 55 50 49 48 45 40 34 27 22 19 17 15 15 18
80 87 93 76 77 70 69 74 70 71 65 62 58 59 61 60 56 52 51 49 46 43 39 34 27 20 19 20 18 15 20 17
84 77 67 59 61 63 63 59 57 55 55 58 59 58 56 54 54 55 53 50 46 39 31 26 22 20 20 23 24 25 26 24
63 63 58 56 63 63 60 59 60 58 61 61 60 60 59 58 56 51 44 40 33 29 26 23 24 25 23 30 35 34 37 31
60 57 57 64 66 64 66 67 66 64 64 62 60 59 55 50 47 41 32 29 27 26 24 24 26 33 33 37 38 41 46 46
62 66 67 70 72 72 66 68 68 65 63 62 58 52 45 37 33 31 31 31 31 32 32 35 34 35 41 43 45 52 54 59
76 76 72 71 71 68 68 65 64 63 58 51 45 38 36 36 36 36 37 37 37 38 39 41 41 38 42 43 46 47 49 51
65 63 66 68 68 69 65 61 58 52 45 41 41 41 40 41 40 38 39 39 43 39 38 39 38 41 42 47 47 50 44 47
63 64 65 66 66 63 57 55 52 51 51 49 45 41 40 39 39 39 39 41 35 38 39 43 48 49 52 58 54 55 48 41

GFSFLT2_prec_cthk_030.txt.gz
RH
75 67 44 31 25 18 11 10 19 26 29 30 29 29 29 30 31 32 33 35 36 36 34 33 33 33 33 34 33 32 34 34
72 47 33 29 20 11 9 17 28 32 34 34 33 34 34 36 37 38 43 45 45 43 42 38 38 36 38 37 38 40 40 39
39 35 31 26 19 10 15 28 33 38 40 39 39 46 46 47 45 48 50 48 47 47 46 43 38 36 37 39 41 43 42 42
31 29 22 15 16 15 27 36 43 45 47 46 53 52 52 48 47 47 48 46 45 44 46 43 42 40 38 39 42 41 41 39
28 20 17 17 22 28 37 45 48 48 49 57 59 58 56 55 52 54 47 48 51 50 49 46 44 44 40 39 38 37 36 34
23 20 21 23 30 36 41 50 52 58 61 62 62 66 63 62 61 57 57 58 55 56 54 50 47 45 46 44 41 38 37 35
35 29 30 33 37 42 45 53 60 66 76 76 72 72 70 69 66 64 66 66 64 62 61 54 53 52 49 46 42 39 35 30
46 50 45 47 48 54 58 63 69 75 85 94 91 87 79 74 74 74 71 68 68 67 63 59 59 53 49 44 40 36 33 28
66 65 70 72 67 72 73 77 80 81 83 90 86 86 81 81 81 80 76 68 64 66 61 56 53 49 45 41 37 34 29 26
70 80 80 82 87 86 91 88 72 78 82 89 90 85 83 86 84 80 69 63 61 59 53 49 46 42 38 31 27 24 22 22
74 79 78 86 94 89 84 84 89 85 82 79 79 81 82 77 69 62 59 58 56 52 49 45 42 37 29 24 24 22 19 23
71 78 83 91 80 86 73 75 73 74 70 69 69 64 61 58 58 57 57 56 52 48 44 39 35 32 27 25 26 24 24 27
77 80 89 82 74 68 65 64 64 66 62 56 54 55 57 58 57 56 55 52 48 43 40 35 33 33 31 26 26 29 39 38
80 81 75 72 69 60 60 59 63 64 63 63 63 65 64 62 61 59 53 50 47 40 33 31 30 31 34 29 27 27 31 46
73 73 72 66 60 64 66 68 68 69 67 69 67 66 65 62 56 51 48 42 36 35 34 31 33 30 34 35 36 34 35 34
75 67 62 62 66 70 70 68 70 70 70 71 70 68 64 59 51 40 35 35 35 36 36 36 35 33 35 39 42 42 45 46
61 62 64 65 65 66 65 69 72 72 70 72 69 65 54 46 41 38 37 39 43 41 38 38 38 40 41 41 44 46 48 53
58 59 58 59 61 65 69 71 71 66 67 64 59 54 53 54 49 44 43 42 43 42 45 47 49 47 46 47 51 53 58 57
60 59 61 64 66 66 65 66 64 62 61 57 54 55 56 54 51 44 45 48 46 46 50 53 57 55 53 53 59 59 60 60
58 59 63 65 62 58 64 60 63 66 58 56 52 53 51 45 39 42 41 49 51 52 51 52 59 53 54 60 58 60 61 61

GFSFLT2_prec_cthk_033.txt.gz
RH
84 81 77 50 29 21 13 10 15 23 30 31 30 30 30 32 32 33 34 36 41 45 44 42 39 36 36 34 35 37 40 43
91 84 59 35 25 16 11 12 23 29 33 32 32 33 34 36 39 41 44 44 46 46 43 43 40 39 37 35 36 39 41 44
92 70 48 39 21 13 11 21 30 35 36 35 39 51 49 50 45 45 46 47 46 47 45 42 44 43 42 39 36 38 39 41
70 49 40 33 25 12 18 31 39 45 47 45 58 56 57 56 46 47 48 49 52 52 50 49 49 47 44 43 42 39 38 36
45 37 29 28 25 28 36 44 48 51 54 57 61 65 67 66 63 63 63 58 62 59 59 57 53 48 46 45 43 43 42 40
36 27 25 29 30 39 47 57 57 56 62 65 67 71 80 71 74 72 69 71 68 66 66 61 59 53 48 46 45 44 41 40
30 28 28 30 38 46 52 56 56 65 72 77 80 80 78 81 78 75 73 73 72 71 67 60 58 55 51 48 45 42 40 38
35 35 37 41 47 50 60 70 65 66 69 77 83 84 82 83 82 82 82 80 80 72 60 53 54 52 49 46 43 38 34 32
55 58 55 60 61 63 65 61 65 66 76 79 80 85 86 88 84 82 93 75 73 59 58 55 51 49 44 38 34 27 25 24
58 61 67 71 72 76 74 71 72 79 77 76 77 86 87 83 84 76 66 61 56 57 54 50 47 41 36 32 27 25 25 24
69 75 78 78 82 83 86 87 81 77 79 79 85 78 74 70 62 58 56 56 55 51 49 46 41 35 30 30 30 27 28 29
71 73 74 79 83 72 80 71 69 73 73 72 68 62 57 58 57 55 54 56 54 52 46 41 37 35 33 34 32 29 28 36
74 74 75 81 78 73 70 72 72 66 62 58 57 57 58 59 60 59 61 62 56 50 45 39 38 37 34 32 33 31 31 37
71 76 79 78 72 71 70 63 62 64 59 58 60 61 63 63 64 67 65 60 52 47 42 42 39 37 36 36 37 31 33 41
76 82 75 79 75 65 64 67 63 60 62 65 67 66 66 65 66 65 58 50 47 47 46 44 42 42 44 41 40 40 39 38
71 68 68 66 62 63 62 63 68 68 68 68 67 66 68 67 61 53 49 50 50 49 52 51 50 48 45 44 44 45 47 39
69 66 63 58 56 60 61 65 68 68 69 69 69 71 67 60 55 55 56 53 55 56 57 55 50 47 47 47 46 46 43 46
66 57 58 59 57 58 62 65 65 67 71 66 66 67 60 60 61 58 54 52 58 56 55 49 53 51 59 58 55 50 51 54
61 57 57 59 58 60 62 61 59 63 66 66 71 60 58 57 53 51 50 49 48 53 50 48 51 54 64 68 63 48 54 57
56 57 58 59 60 62 60 59 63 68 70 67 57 60 60 53 48 49 49 48 49 49 50 51 54 54 66 64 57 59 64 62

GFSFLT2_prec_cthk_036.txt.gz
RH
96 90 81 63 49 34 21 14 11 18 25 27 28 28 30 31 31 33 36 37 41 43 42 41 41 40 38 38 34 36 39 42
96 90 73 54 46 26 17 12 18 25 28 29 30 30 32 34 35 37 40 41 44 45 45 46 48 44 42 39 39 38 38 39
93 77 54 42 28 18 13 16 23 29 30 36 41 45 44 44 39 40 43 45 46 48 51 54 54 51 48 45 42 40 38 37
80 61 44 29 19 14 16 23 28 34 35 45 62 56 53 49 50 48 50 52 56 60 61 59 57 56 55 52 46 42 38 37
62 50 36 27 18 19 26 31 41 46 55 47 57 51 60 69 65 66 67 68 66 65 65 63 62 56 49 52 43 40 38 35
40 33 31 31 27 29 35 40 46 49 43 48 52 59 71 70 70 74 74 74 70 71 69 69 64 54 49 46 43 42 40 37
25 23 27 27 34 44 46 61 51 57 62 58 63 68 72 71 74 74 73 73 72 71 67 66 56 48 47 44 43 40 36 32
29 27 31 40 47 50 61 69 64 69 66 68 73 71 74 77 73 77 78 76 69 71 60 51 49 46 44 41 38 34 28 26
40 49 52 57 53 59 59 66 67 68 60 67 72 71 74 74 72 79 77 68 53 48 46 45 44 40 36 32 30 30 25 24
56 57 61 67 65 65 67 72 69 63 63 70 69 68 69 72 70 65 55 48 45 44 45 45 42 38 32 29 30 29 26 28
58 64 68 72 75 75 72 72 71 66 69 67 70 68 66 61 51 47 47 48 48 48 49 46 40 33 30 31 31 30 29 29
67 68 71 73 73 74 70 67 63 64 65 67 65 58 48 47 47 48 49 51 53 53 50 45 39 36 35 34 33 34 33 32
64 64 66 68 73 74 68 64 60 60 59 55 47 46 50 52 54 54 56 59 57 52 45 41 39 38 36 34 34 33 32 31
61 67 68 74 78 71 62 58 55 52 46 46 51 53 57 58 58 60 61 60 54 44 40 39 39 39 38 39 35 32 32 33
62 71 73 73 75 61 55 51 50 47 50 52 56 58 60 59 62 63 60 55 46 42 39 41 44 42 40 39 38 36 33 33
68 70 70 66 68 58 54 50 49 55 58 58 61 62 61 62 64 57 54 52 47 41 42 46 45 43 42 41 38 40 40 34
67 62 64 73 62 54 54 59 59 62 64 66 69 63 63 62 57 58 56 52 46 43 47 52 52 49 48 44 42 43 49 47
61 73 67 62 55 57 58 57 60 62 63 62 67 67 71 63 60 57 52 46 40 44 49 49 51 48 46 48 55 59 61 60
62 62 59 58 56 54 55 58 61 62 59 63 67 78 74 55 54 50 42 39 41 46 47 49 52 51 46 50 63 59 65 66
58 57 57 56 55 53 55 56 59 59 59 64 80 74 58 50 48 44 43 42 45 46 47 48 52 49 57 56 63 66 70 68

GFSFLT2_prec_cthk_039.txt.gz
RH
97 90 88 75 56 43 28 15 13 16 21 23 25 26 27 27 28 29 33 35 37 39 41 46 45 45 45 41 40 39 37 36
91 91 81 58 52 41 29 19 18 21 21 27 30 28 27 28 30 34 37 37 41 45 47 51 52 51 49 49 44 45 41 36
95 89 69 52 48 32 17 17 21 23 28 29 28 31 34 35 36 40 44 48 51 56 57 56 58 55 50 45 50 42 38 35
80 69 56 44 28 18 15 18 20 21 28 33 34 37 40 43 50 52 55 58 60 63 62 61 60 58 54 46 43 42 38 35
71 61 46 32 22 19 18 19 22 26 31 42 45 43 48 59 62 64 62 62 65 66 67 62 61 59 51 44 43 41 40 35
51 42 30 22 18 20 21 25 28 41 43 53 52 53 60 66 66 65 63 67 70 68 69 64 60 52 46 41 40 38 34 28
42 36 29 25 25 29 29 40 47 55 53 54 58 61 65 67 67 66 68 69 68 66 64 52 44 41 39 38 33 29 27 27
37 28 30 37 41 44 52 56 60 62 59 66 66 65 71 72 70 68 70 68 66 65 48 39 39 38 35 29 26 27 26 26
30 30 44 48 51 52 56 63 59 67 59 61 62 68 69 68 66 65 68 61 57 43 38 39 39 36 31 27 28 27 27 26
38 44 51 55 59 59 67 59 62 65 61 62 60 63 66 62 60 60 55 46 40 38 39 42 41 36 30 30 29 28 28 28
48 54 57 68 62 63 62 60 64 64 64 64 63 65 62 56 55 46 40 40 40 42 45 45 40 33 31 30 30 29 31 32
52 55 59 64 62 62 71 66 69 65 60 58 59 60 57 48 42 42 44 47 48 49 50 45 39 34 33 31 33 31 32 33
56 57 59 69 70 77 75 66 56 55 55 55 50 46 43 44 46 50 52 52 54 53 48 42 36 35 31 32 33 32 28 30
54 66 71 73 73 71 70 61 55 53 51 44 42 45 49 51 53 52 54 57 56 51 44 39 37 34 35 36 34 33 33 32
54 63 73 73 69 70 69 56 49 46 42 42 47 51 51 53 55 55 56 55 51 48 44 38 36 37 41 41 39 37 34 34
58 65 68 67 69 71 57 51 44 42 45 48 53 55 56 58 57 61 61 55 49 48 44 39 38 41 44 44 46 44 41 38
57 61 60 64 64 58 57 49 48 48 50 51 53 56 57 56 61 67 63 55 49 44 42 39 43 48 48 50 48 42 43 44
58 57 57 58 61 60 57 54 51 50 53 58 62 64 63 62 66 68 62 56 47 42 36 41 44 44 45 45 44 47 52 54
53 54 57 63 63 62 57 54 54 55 60 63 64 62 60 66 75 70 67 57 42 36 42 46 45 45 48 51 55 56 57 58
51 57 58 57 59 60 59 56 54 58 61 63 66 66 69 68 68 66 59 56 50 39 45 47 46 48 51 54 55 56 64 60

GFSFLT2_prec_cthk_042.txt.gz
RH
98 97 87 78 74 61 46 30 23 19 16 19 21 22 22 24 25 27 29 33 36 39 41 43 48 49 48 47 45 43 40 37
94 90 86 76 64 47 33 26 28 28 25 22 22 24 26 26 28 32 35 39 43 48 50 54 54 53 53 46 41 41 39 34
90 88 78 67 58 46 35 31 25 19 22 26 28 28 30 34 33 38 43 48 51 54 59 59 59 56 53 49 42 37 36 35
85 85 68 60 46 36 29 25 21 22 26 27 29 32 34 38 42 49 53 54 56 60 63 62 64 61 53 45 42 38 35 32
83 72 58 45 32 19 18 18 21 24 29 35 39 43 48 53 55 58 59 59 62 63 64 60 59 53 42 38 39 32 28 25
64 52 44 32 20 18 18 20 25 32 42 45 48 52 55 59 57 59 63 62 62 63 63 61 50 40 34 33 29 25 24 24
54 38 32 24 22 24 26 29 38 51 53 56 56 54 60 62 62 65 65 62 60 60 58 49 39 35 34 31 26 24 24 24
48 44 29 26 29 33 38 46 54 57 65 60 54 60 65 65 67 65 59 58 58 58 49 39 36 36 35 28 25 25 24 23
38 40 41 41 42 44 54 66 65 65 62 59 57 59 59 59 59 60 59 58 57 47 39 37 39 39 35 29 28 27 25 24
47 46 45 51 60 61 67 64 61 59 59 56 55 56 52 57 57 57 59 55 43 39 39 41 42 41 35 32 31 28 28 28
48 48 51 59 67 61 60 60 57 58 57 58 53 52 52 56 57 57 48 42 41 42 46 47 44 41 38 36 34 30 29 32
49 48 49 54 57 61 63 64 57 52 49 49 47 48 50 53 52 45 43 45 48 50 50 48 45 44 41 37 34 32 32 31
41 44 47 53 63 63 63 64 58 49 47 45 47 47 48 45 44 45 48 52 53 51 53 47 45 41 39 38 35 35 36 37
45 48 52 60 69 65 64 64 58 52 48 49 49 46 42 44 48 50 53 55 55 55 49 46 45 39 38 37 37 39 39 39
50 59 63 68 67 64 71 66 62 55 50 47 47 45 47 49 52 54 57 59 62 60 52 47 47 41 38 41 43 45 42 42
51 63 64 65 63 67 66 65 61 54 51 47 46 46 50 55 56 58 59 64 67 64 61 59 59 49 43 45 49 51 49 45
58 59 61 61 62 64 67 65 58 54 46 46 48 52 56 59 60 61 61 66 67 65 66 64 59 50 45 44 47 47 47 48
63 62 61 63 64 65 65 61 57 49 48 50 55 58 60 60 63 68 72 69 69 64 60 52 44 43 43 46 49 50 47 52
60 58 60 63 62 62 62 60 55 53 55 58 61 64 67 77 84 81 75 74 76 68 53 48 50 52 49 49 50 54 56 56
57 56 58 60 59 65 60 57 62 67 68 68 76 83 84 82 85 87 81 79 69 64 52 49 53 54 53 54 56 61 59 53

GFSFLT2_prec_cthk_048.txt.gz
RH
98 98 96 86 73 66 52 51 53 54 43 43 43 42 35 31 32 34 35 32 35 42 47 48 49 49 46 41 39 35 33 31
94 95 90 80 71 59 53 56 59 49 42 38 36 29 28 29 31 32 34 38 44 49 53 51 53 54 49 39 31 27 23 22
97 93 87 78 69 68 68 62 49 36 35 41 38 32 31 32 34 37 39 45 48 52 56 57 56 54 44 37 28 23 21 19
94 87 82 84 83 74 63 51 46 45 39 37 33 38 37 38 38 41 44 48 54 58 55 59 57 48 39 30 26 23 21 21
93 90 89 87 81 69 56 49 37 33 32 36 39 42 44 46 46 50 55 57 61 59 60 58 51 41 34 30 26 23 22 22
93 93 89 77 64 48 41 43 41 43 44 44 44 49 49 53 60 60 60 63 63 64 64 51 42 37 32 30 28 26 24 24
75 73 70 60 50 42 42 37 38 39 48 53 60 60 61 61 67 65 63 62 61 59 55 44 41 38 34 32 30 27 25 25
58 53 47 38 31 32 35 39 48 60 64 72 69 63 63 63 61 63 59 59 60 58 51 45 42 38 37 35 30 28 27 27
45 44 39 39 41 42 46 55 60 66 68 70 65 61 62 63 61 59 58 58 59 58 49 46 41 41 41 35 30 28 28 28
53 51 50 45 44 46 52 60 61 63 69 63 66 66 66 59 57 57 56 56 58 54 47 44 43 44 39 33 31 29 28 29
53 51 50 50 49 51 51 51 59 71 70 56 58 52 51 55 51 55 54 59 53 46 45 46 47 44 40 37 35 34 33 33
51 45 44 45 46 50 57 64 68 70 66 56 52 50 51 52 51 53 56 55 44 44 49 50 46 42 40 40 39 40 40 43
45 44 45 47 49 57 65 65 73 77 66 62 54 51 51 51 50 53 54 46 43 48 52 47 47 45 45 47 47 44 47 52
43 45 49 55 61 64 67 69 69 75 69 66 59 55 54 53 54 53 46 44 47 53 50 53 57 63 63 62 59 53 53 52
46 45 52 58 59 65 62 64 75 74 74 73 72 61 56 54 53 45 46 47 51 55 62 66 71 73 73 66 64 56 61 63
50 52 55 58 60 60 58 64 71 73 80 75 63 62 56 53 49 49 53 59 66 71 75 80 76 81 78 71 64 63 64 62
59 58 59 63 63 60 59 66 78 79 82 75 76 69 63 59 58 63 67 69 75 80 85 86 94 90 77 67 65 62 66 64
63 66 63 68 70 56 56 64 71 75 82 81 76 69 67 66 70 75 77 81 89 85 86 95 85 80 74 73 68 64 62 63
65 66 66 65 68 64 57 67 73 78 79 82 75 71 72 75 83 90 88 92 93 88 82 81 86 82 71 68 62 61 60 64
71 68 65 73 73 69 71 67 78 82 82 87 79 81 83 85 89 94 92 84 78 85 87 78 71 71 64 63 67 69 66 66

GFSFLT2_prec_cthk_054.txt.gz
RH
87 92 95 87 85 69 62 58 57 51 51 52 49 50 48 48 48 45 43 42 40 42 42 43 44 41 40 35 30 29 33 27
97 98 95 84 73 71 69 64 54 54 54 54 53 51 48 48 46 45 43 40 43 44 47 48 52 47 38 34 28 28 27 29
91 96 92 81 84 84 67 60 59 58 58 58 57 56 56 51 46 44 44 45 47 48 51 55 57 46 40 34 31 29 27 28
84 87 90 88 86 83 75 75 68 63 64 63 61 58 53 48 47 48 46 48 52 55 58 60 59 47 41 34 30 28 26 25
82 85 86 87 85 91 92 80 73 76 72 61 56 52 51 50 45 49 56 60 60 61 63 63 60 49 39 33 30 29 27 27
82 88 90 93 98 91 86 86 83 71 64 60 56 52 51 53 54 59 62 66 65 66 66 63 54 42 35 34 32 29 28 28
93 93 96 95 94 89 91 81 75 66 59 57 54 56 56 56 61 68 67 66 64 63 63 58 47 41 37 36 33 30 30 32
97 94 94 93 92 93 83 71 61 57 56 54 57 54 53 66 71 70 70 64 61 57 57 53 43 41 37 37 33 31 30 30
88 95 95 92 89 78 70 65 60 57 54 52 54 64 71 68 69 67 66 60 58 54 52 46 44 40 37 36 34 32 32 32
68 73 80 79 70 57 55 54 47 49 52 63 73 77 71 73 76 74 64 59 52 53 50 46 43 38 36 36 37 37 38 40
54 55 53 46 46 45 45 50 58 60 68 77 83 84 81 80 72 64 62 56 53 51 50 47 42 39 40 43 45 48 48 48
56 54 51 48 51 51 55 59 59 61 69 78 84 78 73 75 65 58 59 54 49 50 50 47 42 45 49 52 54 55 56 55
60 64 65 62 60 57 54 56 60 62 69 74 83 81 74 61 55 55 55 52 49 52 54 51 49 52 58 61 62 61 59 57
55 54 57 60 61 59 57 56 62 63 68 81 85 86 84 70 67 62 61 57 59 60 61 57 56 58 65 70 72 70 62 59
51 52 56 59 62 66 66 69 68 65 71 79 88 91 91 86 77 71 69 68 66 67 64 63 61 64 73 81 81 81 71 65
48 49 51 55 60 68 66 67 70 65 65 79 90 92 94 93 85 80 79 76 73 72 68 69 70 75 83 87 90 82 71 69
50 50 51 55 59 65 70 71 71 75 71 74 86 86 91 90 89 86 85 86 82 79 74 76 78 86 95 90 85 83 78 77
55 57 60 61 66 67 71 77 80 72 62 60 67 76 87 92 93 93 92 89 86 84 81 88 87 91 93 88 89 87 81 70
62 65 71 71 75 77 80 83 84 80 77 70 69 74 83 91 93 97 94 91 90 89 89 92 92 88 93 92 81 81 75 74
65 70 72 76 79 77 78 85 84 81 77 73 73 84 81 99 94 96 97 97 95 88 89 92 97 91 95 82 88 81 79 74

GFSFLT2_prec_cthk_057.txt.gz
RH
96 98 95 92 86 80 70 66 60 55 50 46 54 48 50 51 51 50 46 48 50 46 43 39 37 34 34 33 31 34 36 37
94 91 98 92 86 80 72 71 63 60 50 54 56 53 53 53 54 48 51 58 54 54 49 44 40 38 35 33 33 33 34 32
84 86 87 92 86 81 78 80 63 59 58 60 62 60 59 59 52 53 53 56 55 47 51 49 48 40 38 36 35 32 31 31
84 79 82 89 79 79 89 85 71 65 64 66 68 67 68 61 56 53 47 51 53 54 53 57 56 47 40 40 34 29 26 28
82 83 86 84 79 77 85 90 77 71 73 76 75 74 74 62 54 52 59 58 57 61 59 62 61 49 37 34 31 29 28 28
82 80 83 77 81 98 94 88 82 79 79 80 78 73 69 59 59 58 60 66 65 66 66 66 63 45 36 33 31 32 29 30
80 84 88 84 89 94 91 87 85 82 84 81 72 71 68 66 63 65 67 69 67 67 62 58 50 39 34 35 33 30 30 31
84 91 95 92 96 95 94 92 89 88 81 72 70 73 69 67 66 72 73 71 69 63 55 54 44 38 36 34 33 32 32 33
95 95 97 98 96 91 93 91 84 78 72 71 72 72 67 65 72 76 76 74 67 59 53 50 43 39 37 35 35 38 39 41
94 97 95 95 93 92 89 87 74 68 71 72 66 65 64 76 76 77 75 70 61 56 51 49 45 41 37 38 41 44 45 46
68 77 85 84 85 83 77 74 62 66 64 63 58 63 77 75 78 81 77 67 58 56 51 50 46 43 40 44 48 51 51 49
54 55 65 74 73 63 59 60 60 63 67 70 81 85 81 80 81 79 69 60 54 51 49 50 53 49 45 46 52 56 55 53
52 53 54 59 61 64 64 61 60 63 64 68 74 81 82 78 71 64 57 55 57 54 51 60 61 57 54 56 58 57 60 62
58 56 55 58 63 59 61 59 59 61 65 70 73 78 80 76 69 76 68 67 68 66 63 66 66 65 59 62 67 69 66 65
54 57 58 60 64 64 66 67 66 70 70 70 65 83 84 91 91 91 86 83 76 76 74 74 75 70 66 68 75 77 81 79
51 53 58 61 64 68 71 71 69 71 71 69 68 70 83 89 93 98 97 90 82 84 87 84 83 77 72 75 79 85 87 82
48 51 56 59 62 64 68 70 71 74 76 77 70 70 80 82 83 92 98 97 94 94 94 90 88 81 78 80 82 90 89 87
53 55 56 60 64 68 68 75 72 74 77 79 71 68 68 78 88 90 97 96 98 97 96 91 88 86 90 87 89 94 91 86
55 57 60 66 72 70 75 78 80 79 86 87 81 84 81 77 84 91 99 97 99 98 96 97 94 91 91 93 93 94 92 91
62 68 70 73 75 84 90 91 88 83 78 79 82 80 78 79 87 92 88 96 98 97 98 97 93 94 95 95 90 91 90 85

GFSFLT2_prec_cthk_063.txt.gz
RH
87 95 98 98 99 98 95 80 68 58 54 53 57 54 53 48 48 51 51 53 48 46 45 38 36 37 37 39 36 30 28 26
82 80 80 86 95 97 97 89 74 63 58 58 63 59 56 55 52 54 58 59 57 51 44 41 43 38 36 35 35 33 29 27
71 71 77 78 79 89 91 86 61 63 61 68 66 67 60 57 58 62 66 69 60 51 47 45 42 41 37 40 36 33 31 26
65 71 78 82 86 82 85 83 72 70 73 75 75 68 64 61 65 69 68 67 65 65 56 49 46 44 39 40 34 33 29 24
62 65 70 77 83 76 77 78 72 80 86 81 79 70 67 69 68 70 71 72 70 61 61 54 49 46 46 35 30 29 26 23
57 64 68 75 78 80 81 77 73 76 75 73 71 74 74 72 72 67 72 73 70 68 61 61 57 51 43 34 28 27 25 26
70 70 70 86 80 83 80 82 80 74 71 72 79 79 75 73 70 66 71 75 73 63 68 65 57 40 35 32 30 27 28 29
78 82 80 78 83 75 80 77 78 80 76 79 82 81 78 74 69 66 73 74 68 71 69 59 48 38 31 31 31 31 29 31
82 81 82 79 80 82 84 81 83 83 84 85 86 81 78 72 67 70 74 71 73 76 71 54 45 45 34 30 33 34 33 35
84 81 81 79 79 83 88 87 88 85 88 87 82 79 73 70 71 69 70 74 80 78 68 55 47 41 38 35 34 37 42 44
79 86 84 82 83 85 84 87 89 88 90 86 78 72 71 72 70 69 70 78 80 72 60 53 47 45 42 43 46 42 44 46
63 73 79 81 81 82 83 80 79 76 75 76 75 72 67 64 65 68 74 78 80 69 56 56 55 53 57 54 52 52 52 54
46 51 59 61 65 68 64 61 63 66 69 69 68 68 70 67 62 72 79 83 69 62 60 62 67 72 72 67 64 64 65 64
42 43 42 44 45 47 49 50 51 53 54 55 61 66 72 73 80 81 82 81 79 75 73 72 79 86 82 85 76 76 73 74
32 35 38 41 44 47 52 58 56 54 52 55 55 58 60 69 78 86 88 89 85 85 86 87 89 92 95 90 90 86 82 83
32 34 36 42 45 45 47 49 52 50 49 52 56 56 57 59 65 77 85 80 83 85 85 86 90 90 97 95 89 90 92 89
34 36 37 38 40 44 48 47 45 44 50 56 61 62 59 60 64 70 77 80 78 78 87 91 91 98 94 96 94 97 97 94
38 38 40 40 44 50 57 62 63 66 69 67 68 76 79 82 78 75 76 80 83 87 91 93 95 95 94 95 95 98 98 93
46 45 44 48 52 52 55 61 67 72 78 75 72 70 76 80 86 89 88 88 83 86 91 97 94 94 93 92 98 97 94 96
46 46 45 46 50 54 56 67 71 74 73 76 73 73 74 78 84 87 89 84 79 79 80 85 86 89 91 93 97 97 95 91

GFSFLT2_prec_cthk_069.txt.gz
RH
81 91 94 92 91 79 96 99 94 74 60 55 49 47 44 43 43 46 45 47 46 43 42 42 40 37 40 45 42 30 20 21
83 88 82 80 91 88 98 99 96 82 74 70 56 49 46 46 48 49 47 49 46 44 44 48 50 45 44 40 35 26 23 20
82 86 87 83 94 82 97 97 97 91 76 57 47 49 50 51 52 55 53 48 45 47 48 51 51 50 50 41 34 31 25 22
75 75 75 78 78 77 90 89 94 87 76 62 55 54 55 56 59 61 56 48 50 49 52 55 53 54 51 42 38 33 31 26
63 63 64 66 67 81 87 92 91 93 89 65 60 57 56 63 65 62 56 54 52 60 59 53 54 53 47 45 40 35 32 28
53 56 60 63 67 78 91 93 94 93 89 74 63 65 70 71 68 64 63 66 67 68 58 57 53 51 49 47 40 34 31 29
53 58 64 68 70 73 85 86 89 88 92 86 74 75 76 74 71 69 68 71 70 69 64 57 55 49 48 46 40 32 30 28
60 73 74 78 72 73 86 90 91 88 92 88 83 81 79 76 72 70 72 74 69 70 69 63 56 51 47 43 39 33 29 29
70 80 85 83 81 79 92 88 85 86 87 86 83 80 80 76 74 75 72 74 72 68 65 65 59 49 43 37 34 32 30 31
75 83 86 93 88 93 93 90 94 90 88 85 84 82 81 76 74 75 72 73 71 68 69 69 64 52 44 39 32 30 31 33
75 86 93 93 89 97 93 93 89 85 84 85 86 86 82 79 77 76 69 71 73 70 73 74 70 54 44 41 40 38 40 43
73 83 90 94 91 85 91 93 93 95 89 88 87 87 84 82 81 76 70 68 70 72 80 79 71 55 51 50 49 53 56 59
68 87 90 93 93 94 97 93 93 91 90 90 86 86 85 83 79 73 73 69 69 74 85 84 72 58 61 67 69 68 66 71
50 66 74 77 80 85 86 88 92 91 89 87 84 82 80 78 77 76 70 66 71 80 83 78 73 70 73 74 71 72 73 77
41 47 54 56 59 65 72 80 85 86 82 78 78 76 77 77 76 72 69 65 70 77 84 83 81 81 79 76 76 76 80 80
36 42 48 49 52 54 58 63 69 68 71 73 74 74 78 80 78 78 79 73 78 85 87 86 83 84 82 85 83 82 84 79
32 38 41 44 45 47 52 58 61 63 67 63 61 64 69 68 68 67 69 74 79 82 83 83 87 88 88 88 86 89 81 86
30 36 40 40 42 44 48 50 52 55 56 56 57 60 62 60 57 58 59 66 69 71 77 81 81 79 79 79 79 86 79 73
34 36 38 40 40 40 43 48 54 54 58 60 62 61 64 65 60 59 63 66 69 76 85 84 79 76 71 68 67 69 60 71
36 36 39 42 42 43 44 47 53 56 60 64 64 65 64 65 68 81 83 84 89 93 92 88 74 72 70 64 68 57 66 80

GFSFLT2_prec_cthk_075.txt.gz
RH
76 85 83 85 83 86 85 86 97 92 90 77 67 62 61 46 46 42 40 41 44 45 43 38 37 35 33 30 29 27 27 34
81 85 81 80 81 84 80 80 88 98 91 85 72 71 60 43 42 43 43 45 46 48 47 46 43 40 38 32 33 32 29 38
81 88 89 90 85 81 80 78 76 89 98 86 78 60 56 57 43 47 48 48 50 52 52 50 48 45 43 33 36 42 33 39
73 85 85 87 83 80 74 72 83 94 97 94 69 64 62 53 47 52 52 54 54 57 54 52 52 44 46 45 46 43 40 38
70 76 82 82 75 69 72 80 94 99 99 88 76 75 73 60 52 54 56 57 58 57 59 54 50 51 53 52 50 49 45 36
65 64 67 67 66 67 67 85 99 99 97 93 80 70 65 62 56 58 60 57 58 61 58 58 57 62 60 54 52 50 42 38
55 58 52 57 61 65 69 95 99 97 98 87 76 67 65 69 67 66 61 59 59 65 65 65 62 64 58 56 54 50 47 41
49 52 47 54 61 70 74 94 99 97 92 87 77 72 76 69 67 65 63 67 66 70 68 68 66 63 61 57 54 51 48 41
48 58 63 67 73 75 79 92 95 96 93 91 88 79 78 77 72 71 73 72 72 75 72 68 65 62 58 55 54 52 47 39
54 59 71 79 79 84 84 92 98 96 90 84 80 79 79 74 79 84 83 81 79 81 74 73 66 61 57 52 49 48 43 39
57 68 82 86 87 83 86 87 94 92 89 82 81 81 80 82 86 84 84 85 88 86 82 78 71 66 65 55 47 45 43 43
59 74 83 94 93 86 88 93 97 95 89 86 83 86 90 90 86 88 91 92 93 87 85 84 79 76 75 69 59 55 53 51
62 81 86 95 94 93 95 99 98 95 92 84 87 91 93 91 90 94 92 89 92 89 87 86 86 86 86 75 64 60 63 65
58 80 90 91 94 92 94 95 98 97 96 90 87 90 92 92 92 91 88 87 88 89 89 88 88 89 90 84 75 72 75 71
46 59 73 79 85 91 92 91 94 97 96 89 88 93 93 94 90 89 88 86 85 83 82 82 86 91 93 92 82 73 74 82
37 45 50 56 62 72 80 88 87 90 95 92 95 95 93 93 91 89 88 86 85 83 79 77 82 86 88 90 88 79 80 82
31 39 42 46 51 58 64 80 89 94 97 96 95 96 94 92 91 91 91 90 86 79 77 78 81 85 92 94 88 81 80 83
29 34 38 41 45 49 57 63 73 81 83 84 82 82 82 84 85 84 87 86 83 82 80 84 83 84 92 92 86 84 84 86
32 33 37 39 43 45 47 51 56 61 65 66 69 73 75 76 78 79 78 77 77 77 79 76 79 82 87 81 84 88 94 95
32 35 40 42 43 43 45 50 51 54 57 60 61 65 65 71 73 72 75 76 74 75 76 71 69 69 74 78 84 93 98 90

GFSFLT2_prec_cthk_081.txt.gz
RH
44 59 74 81 78 82 88 90 86 97 91 88 91 91 78 59 80 57 48 43 32 31 34 32 31 30 31 35 38 41 40 40
48 60 75 76 76 79 87 91 91 98 87 88 77 98 85 65 79 67 54 44 41 38 33 33 31 32 33 36 39 44 44 42
50 58 65 79 85 79 92 94 90 98 95 87 84 92 96 81 81 77 66 52 44 33 33 35 34 35 36 40 46 55 50 50
51 56 62 69 79 79 81 88 90 88 92 88 91 95 96 88 84 84 74 60 43 36 35 38 38 39 42 49 56 60 57 47
49 54 56 59 69 82 85 83 84 89 87 86 93 97 96 93 91 87 72 60 45 40 38 43 46 46 48 55 57 60 62 50
52 55 56 58 58 71 78 78 78 78 80 87 94 93 97 95 89 86 72 62 49 45 44 55 52 52 56 58 59 65 66 55
52 55 60 61 60 62 67 69 68 67 72 76 84 98 95 92 91 89 74 65 57 50 57 58 60 57 59 63 65 71 70 57
49 50 52 56 53 54 57 62 62 61 61 71 86 86 97 94 90 90 74 67 63 59 64 61 63 65 65 69 67 68 70 61
48 46 45 45 47 47 50 53 53 54 63 69 87 95 97 94 93 85 77 72 69 68 67 62 67 67 66 70 71 70 67 64
47 46 45 48 52 54 56 56 56 61 70 84 97 95 94 88 93 92 86 81 76 72 71 69 70 71 73 74 72 71 66 65
45 44 41 48 56 59 69 68 70 77 82 91 94 95 90 87 92 87 78 75 73 77 77 79 78 74 77 72 70 68 63 64
44 42 50 66 73 75 77 82 83 86 87 93 93 95 94 92 91 89 81 78 80 82 83 83 82 80 76 70 67 64 63 62
37 43 61 74 81 78 81 83 82 89 89 92 94 94 92 94 93 91 84 86 86 83 82 83 83 78 75 70 68 64 61 63
32 44 63 80 82 82 79 86 83 81 87 92 94 93 93 92 90 86 85 88 87 86 87 86 86 81 78 75 76 77 70 68
30 39 54 70 82 83 86 89 91 91 90 93 92 89 89 88 86 83 84 89 89 89 90 90 92 85 82 83 90 90 88 81
27 34 45 50 57 69 74 81 86 90 91 93 91 92 92 92 89 88 88 90 92 89 90 90 90 86 87 89 91 94 89 90
23 28 39 46 51 55 60 67 73 84 86 92 89 90 90 88 81 85 90 91 90 89 87 87 86 88 88 86 89 89 86 87
26 29 34 40 45 49 53 60 67 73 86 84 82 78 84 85 84 91 92 92 90 88 88 88 86 84 84 85 85 84 82 84
27 30 33 35 41 46 51 55 62 67 77 84 81 80 83 88 92 93 93 93 93 90 87 90 85 83 87 88 91 93 89 78
25 29 34 35 39 43 49 53 55 62 64 66 66 66 72 79 83 83 83 85 85 85 86 87 84 85 84 86 89 91 85 80

GFSFLT2_prec_cthk_087.txt.gz
RH
32 37 41 43 43 45 56 71 78 83 82 82 82 98 93 79 76 78 75 75 64 58 42 43 38 35 37 42 39 38 36 31
37 40 45 43 47 51 59 72 82 83 84 83 86 95 97 85 78 83 80 71 62 51 48 34 35 39 48 42 43 41 35 33
32 38 42 44 48 51 62 73 80 83 87 85 86 88 99 95 83 77 74 71 58 44 36 30 41 48 50 44 44 40 38 34
31 41 41 45 48 51 54 69 76 81 86 92 93 94 94 92 92 85 67 64 46 39 38 41 43 46 47 45 44 41 40 37
32 41 44 46 49 51 50 61 73 81 89 91 97 98 98 92 89 90 81 65 52 47 44 40 38 41 50 49 47 46 45 42
30 41 48 48 47 50 52 54 73 80 85 89 86 94 94 90 88 92 84 71 59 46 39 38 38 50 53 53 49 50 50 46
27 33 44 48 50 55 52 50 58 75 83 83 86 87 85 88 89 87 87 72 56 46 41 39 45 54 58 52 53 52 54 48
31 30 35 42 49 52 55 56 55 59 72 82 84 81 77 77 82 88 88 82 64 50 43 43 53 55 61 55 55 55 57 52
31 34 33 37 42 43 44 47 55 56 61 67 75 74 77 77 75 87 87 83 62 56 51 51 61 63 62 56 57 63 60 54
33 35 37 35 37 37 40 42 46 51 60 67 70 70 70 72 70 87 90 81 67 67 64 60 62 59 67 63 63 65 62 56
33 36 37 34 37 46 49 48 44 45 48 58 65 69 70 74 83 85 86 83 81 77 73 68 67 62 68 69 66 65 66 62
34 33 34 30 42 57 58 57 57 54 52 53 57 62 66 80 89 92 89 83 85 82 80 75 68 67 70 74 73 70 71 69
34 31 32 29 42 61 63 62 65 62 61 64 63 68 80 89 96 97 92 89 87 84 79 75 74 80 79 79 78 76 79 76
29 29 29 31 38 56 66 63 64 66 66 72 79 80 92 98 96 94 94 94 89 87 82 81 81 82 79 80 85 84 83 81
29 26 25 31 38 44 58 66 72 70 68 74 83 91 93 97 97 97 98 96 93 86 82 78 81 80 83 82 82 80 80 80
34 26 22 29 37 41 44 46 57 69 75 79 87 95 94 95 95 95 94 96 97 91 83 78 80 82 83 84 84 74 75 76
34 30 23 29 36 39 41 45 51 58 70 81 88 94 95 97 96 96 94 93 92 88 81 81 82 82 83 84 82 79 83 82
36 32 24 30 35 38 41 44 47 53 62 75 88 92 94 92 89 88 88 87 88 84 81 82 83 84 86 86 84 85 89 87
37 36 25 29 33 37 40 44 46 51 59 70 83 87 91 88 86 85 82 81 79 79 79 80 83 87 91 91 89 90 92 92
37 37 27 28 32 36 39 44 46 49 55 65 74 80 81 83 83 82 82 82 80 78 78 84 87 93 96 96 93 93 93 90